Weather observations for the past three days for
Jamestown, Jamestown Municipal Airport
Metric (Imperial)
Date Time (cdt) Wind (kph) Vis. (km) Weather Sky Cond. Temperature (ºC) Relative Humidity Wind Chill (°C) Heat Index (°C) Pressure Precipitation (cm)
Air Dwpt 6 hour altimeter (cm) sea level (mb) 1 hr 3 hr 6 hr
Max. Min.
03 04:56 E 13 16.09 Fair CLR 16.1 13.9 87% 75.67 1008.1
03 03:56 NE 9 16.09 Fair CLR 15 13.3 90% 75.69 1008.6
03 02:56 E 11 16.09 Fair CLR 15 13.3 90% 75.72 1008.9
03 01:56 E 9 16.09 Fair CLR 16.1 13.3 84% 75.79 1009.9
03 00:56 E 7 16.09 Fair CLR 16.1 13.3 25 16.1 84% 75.82 1010.2
02 23:56 E 11 16.09 Fair CLR 17.2 13.3 78% 75.84 1010.6
02 22:56 E 13 16.09 Fair CLR 17.2 13.3 78% 75.87 1010.9
02 21:56 E 13 16.09 A Few Clouds FEW060 18.9 12.8 68% 75.87 1011.2
02 20:56 E 13 16.09 Fair CLR 17.2 13.9 81% 75.87 1011.2
02 19:56 E 9 16.09 Mostly Cloudy BKN080 21.7 12.8 57% 75.84 1010.9
02 18:56 E 13 16.09 Mostly Cloudy BKN080 25 12.8 28.3 25 47% 26 75.84 1010.7
02 17:56 E 19 16.09 Partly Cloudy SCT075 26.7 12.2 41% 27 75.84 1010.7
02 16:56 E 17 16.09 A Few Clouds FEW085 27.2 12.8 41% 27 75.87 1010.9
02 15:56 E 15 16.09 Mostly Cloudy BKN090 26.7 13.3 44% 27 75.92 1011.6
02 14:56 E 19 G 28 16.09 A Few Clouds FEW085 27.8 13.3 41% 28 75.95 1011.9
02 13:56 SE 9 16.09 Mostly Cloudy BKN090 26.7 12.8 42% 27 76 1012.5
02 12:56 Vrbl 9 16.09 Fair CLR 25.6 14.4 25.6 15 50% 26 76.05 1013.3
02 11:56 SE 13 16.09 Fair CLR 24.4 12.2 47% 26 76.05 1013.6
02 10:56 E 13 16.09 A Few Clouds FEW110 22.8 14.4 59% 76.05 1013.6
02 09:56 E 9 16.09 Fair CLR 20 14.4 70% 76.07 1013.7
02 08:56 SE 7 16.09 Fair CLR 18.3 14.4 78% 76.1 1014.2
02 07:56 E 9 16.09 A Few Clouds FEW120 17.2 14.4 84% 76.07 1014.0
02 06:56 NE 7 16.09 Fair CLR 15 13.9 16.1 14.4 93% 76.05 1013.7
02 05:56 E 6 16.09 Fair CLR 15.6 13.3 86% 76.05 1013.3
02 04:56 NE 6 16.09 Fair CLR 15 13.9 93% 76.05 1013.6
02 03:56 Calm 16.09 Fair CLR 15 13.9 93% 76.05 1013.6
02 02:56 Calm 16.09 Fair CLR 15 13.9 93% 76.05 1013.6
02 01:56 Calm 16.09 Fair CLR 15.6 13.3 86% 76.07 1013.7
02 00:56 Calm 16.09 Fair CLR 14.4 12.8 22.8 13.3 90% 76.05 1013.7
01 23:56 E 6 16.09 Fair CLR 15 13.3 90% 76.05 1013.6
01 22:56 E 7 16.09 Fair CLR 14.4 13.3 93% 76.07 1013.7
01 21:56 NE 9 16.09 Fair CLR 17.2 15 87% 76.07 1013.9
01 20:56 Calm 16.09 Fair CLR 18.3 15.6 84% 76.07 1013.9
01 19:56 Calm 16.09 Fair CLR 20.6 13.9 66% 76.02 1013.5
01 18:56 S 9 16.09 Fair CLR 22.2 13.9 25 22.2 59% 76.07 1014.1
01 17:56 W 7 16.09 Fair CLR 23.9 12.2 48% 25 76.05 1013.8
01 16:56 W 13 16.09 Fair CLR 24.4 11.7 45% 26 76.1 1014.1
01 15:56 SW 15 16.09 Fair CLR 24.4 12.2 47% 26 76.1 1014.3
01 14:56 W 17 16.09 Fair CLR 24.4 11.7 45% 26 76.1 1014.3
01 13:56 W 13 16.09 Fair CLR 23.9 11.7 46% 25 76.12 1014.5
01 12:56 W 13 16.09 Fair CLR 24.4 11.1 24.4 10.6 43% 26 76.15 1014.9
01 11:56 W 11 16.09 Fair CLR 23.9 11.7 46% 25 76.17 1015.1
01 10:56 NW 13 16.09 Fair CLR 22.8 12.8 53% 76.17 1015.3
01 09:56 NW 13 16.09 Fair CLR 20.6 13.3 63% 76.17 1015.1
01 08:56 SW 6 16.09 Fair CLR 17.2 12.8 76% 76.2 1015.4
01 07:56 SW 6 16.09 Fair CLR 14.4 11.1 81% 76.17 1015.1
01 06:56 Calm 16.09 Fair CLR 10.6 10 15 10.6 96% 76.12 1014.5
01 05:56 W 6 16.09 Fair CLR 12.8 10.6 87% 76.1 1014.0
01 04:56 SW 9 16.09 Fair CLR 13.9 10.6 81% 76.07 1013.8
01 03:56 W 7 16.09 Fair CLR 13.9 10.6 81% 76.05 1013.4
01 02:56 S 9 16.09 Fair CLR 13.3 10.6 84% 76.05 1013.5
01 01:56 W 7 16.09 Fair CLR 14.4 10.6 78% 76.07 1013.6
01 00:56 S 7 16.09 Fair CLR 13.3 10 26.1 13.3 81% 76.05 1013.5
31 23:56 W 9 16.09 Fair CLR 16.1 10.6 70% 76.02 1013.0
31 22:56 W 13 16.09 Fair CLR 17.8 10 60% 75.97 1012.3
31 21:56 SW 15 16.09 Fair CLR 20 9.4 51% 75.92 1011.8
31 20:56 SW 17 16.09 Fair CLR 22.2 8.3 41% 75.87 1011.3
31 19:56 SW 17 16.09 Fair CLR 23.3 8.9 40% 75.84 1010.9
31 17:56 W 30 G 48 16.09 Fair CLR 27.2 7.2 28% 26 75.82 1010.3
31 16:56 W 33 G 50 16.09 Fair and Breezy CLR 27.8 8.3 29% 27 75.82 1010.2
31 15:56 W 35 G 52 16.09 Fair and Breezy CLR 27.8 9.4 32% 27 75.82 1010.3
31 14:56 W 30 G 59 16.09 Fair CLR 27.2 9.4 33% 27 75.84 1010.6
31 13:56 SW 30 G 52 16.09 Fair CLR 26.1 8.3 32% 26 75.9 1011.1
31 12:56 SW 24 G 44 16.09 Fair CLR 25.6 8.3 25.6 12.2 33% 26 75.92 1011.6
31 11:56 SW 20 16.09 Fair CLR 24.4 11.7 45% 26 75.97 1012.3
31 10:56 W 20 16.09 Fair CLR 21.7 12.8 57% 75.95 1012.2
31 09:56 W 17 16.09 Fair CLR 18.9 12.8 68% 75.95 1012.0
31 08:56 W 20 16.09 Fair CLR 16.7 12.8 78% 75.95 1012.1
31 07:56 W 13 16.09 Fair CLR 13.9 11.7 87% 75.9 1011.5
31 06:56 W 11 16.09 Fair CLR 12.2 11.1 17.8 12.2 93% 75.82 1010.7
31 05:56 SW 7 16.09 Fair CLR 12.8 12.2 96% 75.77 1010.1
Date Time (cdt) Wind (kph) Vis. (km) Weather Sky Cond. Air Dwpt Max. Min. Relative Humidity Wind Chill (°C) Heat Index (°C) altimeter (cm) sea level (mb) 1 hr 3 hr 6 hr
6 hour
Temperature (ºC) Pressure Precipitation (cm)